TimeCDT,TemperatureF,Dew PointF,Humidity,Sea Level PressureIn,VisibilityMPH,Wind Direction,Wind SpeedMPH,Gust SpeedMPH,PrecipitationIn,Events,Conditions,WindDirDegrees,DateUTC
12:15 AM,35.8,31.1,83,30.10,10.0,SSE,4.6,-,N/A,,Clear,160,2013-03-15 05:15:00
12:35 AM,36.5,31.8,83,30.08,10.0,SSE,6.9,-,N/A,,Clear,150,2013-03-15 05:35:00
12:55 AM,36.3,32.0,84,30.07,10.0,SSE,6.9,-,N/A,,Clear,150,2013-03-15 05:55:00
1:15 AM,36.3,32.0,84,30.07,10.0,South,4.6,-,N/A,,Clear,170,2013-03-15 06:15:00
1:35 AM,36.0,32.0,86,30.06,10.0,South,3.5,-,N/A,,Clear,180,2013-03-15 06:35:00
1:55 AM,35.4,31.8,87,30.05,10.0,Calm,Calm,-,N/A,,Clear,0,2013-03-15 06:55:00
2:15 AM,35.8,32.0,86,30.05,10.0,South,3.5,-,N/A,,Clear,190,2013-03-15 07:15:00
2:35 AM,36.1,31.8,84,30.04,10.0,SSW,3.5,-,N/A,,Clear,200,2013-03-15 07:35:00
2:55 AM,35.2,31.8,87,30.03,10.0,South,4.6,-,N/A,,Clear,190,2013-03-15 07:55:00
3:15 AM,35.4,31.8,87,30.01,10.0,SSE,3.5,-,N/A,,Clear,160,2013-03-15 08:15:00
3:35 AM,34.0,31.6,91,30.00,7.0,Calm,Calm,-,N/A,,Clear,0,2013-03-15 08:35:00
3:55 AM,34.7,31.6,89,30.00,10.0,Calm,Calm,-,N/A,,Clear,0,2013-03-15 08:55:00
4:15 AM,34.9,31.8,89,29.99,10.0,Calm,Calm,-,N/A,,Clear,0,2013-03-15 09:15:00
4:35 AM,34.5,31.5,89,29.98,10.0,Calm,Calm,-,N/A,,Clear,0,2013-03-15 09:35:00
4:55 AM,34.0,31.1,89,29.98,7.0,Calm,Calm,-,N/A,,Clear,0,2013-03-15 09:55:00
5:15 AM,33.8,31.6,92,29.98,7.0,Calm,Calm,-,N/A,,Clear,0,2013-03-15 10:15:00
5:35 AM,32.7,30.4,91,29.99,7.0,Calm,Calm,-,N/A,,Clear,0,2013-03-15 10:35:00
5:55 AM,32.5,30.7,93,29.99,7.0,Calm,Calm,-,N/A,,Clear,0,2013-03-15 10:55:00
6:15 AM,32.9,31.1,93,29.98,7.0,Calm,Calm,-,N/A,,Clear,0,2013-03-15 11:15:00
6:35 AM,34.5,31.8,90,29.99,7.0,Calm,Calm,-,N/A,,Clear,0,2013-03-15 11:35:00
6:55 AM,33.4,30.6,89,29.99,7.0,Calm,Calm,-,N/A,,Clear,0,2013-03-15 11:55:00
7:15 AM,32.0,29.7,91,29.98,7.0,Calm,Calm,-,N/A,,Clear,0,2013-03-15 12:15:00
7:35 AM,32.0,29.8,92,29.96,7.0,Calm,Calm,-,N/A,,Clear,0,2013-03-15 12:35:00
7:55 AM,32.4,30.4,92,29.97,7.0,NW,3.5,-,N/A,,Clear,320,2013-03-15 12:55:00
8:15 AM,33.8,31.3,90,29.98,5.0,Calm,Calm,-,N/A,,Clear,0,2013-03-15 13:15:00
8:35 AM,38.5,34.0,84,29.96,5.0,Calm,Calm,-,N/A,,Haze,0,2013-03-15 13:35:00
8:55 AM,41.4,34.9,78,29.97,7.0,Calm,Calm,-,N/A,,Clear,0,2013-03-15 13:55:00
9:15 AM,41.4,34.9,78,29.97,7.0,Calm,Calm,-,N/A,,Clear,0,2013-03-15 14:15:00
9:35 AM,41.9,35.6,78,29.97,7.0,Calm,Calm,-,N/A,,Clear,0,2013-03-15 14:35:00
10:55 AM,48.7,38.5,68,29.95,10.0,Calm,Calm,-,N/A,,Clear,0,2013-03-15 15:55:00
11:15 AM,50.4,39.4,66,29.95,10.0,Calm,Calm,-,N/A,,Clear,0,2013-03-15 16:15:00
11:35 AM,52.7,40.3,63,29.94,10.0,Calm,Calm,-,N/A,,Clear,0,2013-03-15 16:35:00
11:55 AM,53.6,41.0,62,29.93,10.0,Calm,Calm,-,N/A,,Clear,0,2013-03-15 16:55:00
12:15 PM,55.0,42.1,62,29.92,10.0,SSE,3.5,-,N/A,,Clear,150,2013-03-15 17:15:00
12:35 PM,57.6,43.7,60,29.91,10.0,SE,4.6,-,N/A,,Clear,130,2013-03-15 17:35:00
12:55 PM,59.2,44.2,58,29.89,10.0,SSE,5.8,-,N/A,,Clear,150,2013-03-15 17:55:00
1:15 PM,61.3,44.6,54,29.88,10.0,SSE,5.8,-,N/A,,Clear,160,2013-03-15 18:15:00
1:35 PM,63.0,43.0,48,29.86,10.0,South,6.9,-,N/A,,Clear,170,2013-03-15 18:35:00
1:55 PM,63.5,43.5,48,29.84,10.0,SE,4.6,-,N/A,,Clear,130,2013-03-15 18:55:00
2:15 PM,63.9,43.2,47,29.82,10.0,SE,8.1,-,N/A,,Clear,140,2013-03-15 19:15:00
2:35 PM,63.9,46.4,53,29.80,10.0,ESE,6.9,-,N/A,,Clear,110,2013-03-15 19:35:00
2:55 PM,63.9,46.8,54,29.78,10.0,ESE,6.9,-,N/A,,Clear,110,2013-03-15 19:55:00
3:15 PM,64.4,45.0,49,29.77,10.0,SE,10.4,-,N/A,,Clear,130,2013-03-15 20:15:00
3:35 PM,64.4,46.0,51,29.75,10.0,SE,9.2,-,N/A,,Clear,140,2013-03-15 20:35:00
3:55 PM,65.3,45.7,49,29.73,10.0,SE,11.5,-,N/A,,Clear,140,2013-03-15 20:55:00
4:15 PM,65.8,44.6,46,29.72,10.0,SE,10.4,-,N/A,,Clear,140,2013-03-15 21:15:00
4:35 PM,65.5,44.6,47,29.72,10.0,SE,9.2,-,N/A,,Clear,130,2013-03-15 21:35:00
4:55 PM,64.9,45.5,49,29.72,10.0,SSE,6.9,-,N/A,,Clear,150,2013-03-15 21:55:00
5:15 PM,65.1,46.0,50,29.71,10.0,SE,5.8,-,N/A,,Clear,140,2013-03-15 22:15:00
5:35 PM,64.8,46.8,52,29.70,10.0,SSE,5.8,-,N/A,,Clear,150,2013-03-15 22:35:00
5:55 PM,64.6,45.5,50,29.70,10.0,South,5.8,-,N/A,,Clear,170,2013-03-15 22:55:00
6:15 PM,64.2,45.3,50,29.70,10.0,SSE,5.8,-,N/A,,Clear,150,2013-03-15 23:15:00
6:35 PM,63.3,45.7,53,29.69,10.0,ESE,6.9,-,N/A,,Clear,120,2013-03-15 23:35:00
6:55 PM,61.9,44.8,53,29.69,10.0,SE,3.5,-,N/A,,Clear,130,2013-03-15 23:55:00
7:15 PM,61.9,43.3,51,29.68,10.0,SSE,4.6,-,N/A,,Clear,150,2013-03-16 00:15:00
7:35 PM,60.4,44.2,55,29.68,10.0,SE,4.6,-,N/A,,Clear,140,2013-03-16 00:35:00
7:55 PM,60.6,43.5,53,29.68,10.0,Calm,Calm,-,N/A,,Clear,0,2013-03-16 00:55:00
8:15 PM,59.4,43.3,55,29.69,10.0,NNE,4.6,-,N/A,,Clear,20,2013-03-16 01:15:00
8:35 PM,59.2,43.5,56,29.68,10.0,North,4.6,-,N/A,,Clear,10,2013-03-16 01:35:00
8:55 PM,57.4,44.4,62,29.68,10.0,ENE,3.5,-,N/A,,Clear,70,2013-03-16 01:55:00
9:15 PM,56.1,44.6,65,29.68,10.0,Calm,Calm,-,N/A,,Clear,0,2013-03-16 02:15:00
9:35 PM,56.1,44.1,64,29.68,10.0,Calm,Calm,-,N/A,,Clear,0,2013-03-16 02:35:00
9:55 PM,55.0,44.2,67,29.67,10.0,Calm,Calm,-,N/A,,Clear,0,2013-03-16 02:55:00
10:15 PM,54.3,44.1,68,29.67,10.0,Calm,Calm,-,N/A,,Clear,0,2013-03-16 03:15:00
10:35 PM,52.7,44.1,72,29.67,10.0,Calm,Calm,-,N/A,,Clear,0,2013-03-16 03:35:00
10:55 PM,52.9,43.9,71,29.67,10.0,Calm,Calm,-,N/A,,Clear,0,2013-03-16 03:55:00
11:15 PM,51.4,43.5,74,29.66,10.0,Calm,Calm,-,N/A,,Clear,0,2013-03-16 04:15:00
11:35 PM,50.7,44.1,78,29.66,10.0,Calm,Calm,-,N/A,,Clear,0,2013-03-16 04:35:00
11:55 PM,51.4,43.9,75,29.65,10.0,SW,3.5,-,N/A,,Clear,220,2013-03-16 04:55:00